Regional Weather Roundup
Issued by NWS

Home | Current Version | Previous Version | Graphics & Text | Print | Product List | Glossary On
Versions: 1 2 3 4 5 6 7 8 9 10 11 12 13 14 15 16 17 18 19 20 21 22 23 24 25 26 27 28 29 30 31 32 33 34 35 36 37 38 39 40 41 42 43 44 45 46 47 48 49 50
000
ASUS43 KTOP 012059
RWRKS

WEATHER ROUNDUP FOR KANSAS
NATIONAL WEATHER SERVICE GOODLAND KS
400 PM CDT FRI AUG 01 2014

NOTE:  "FAIR" INDICATES FEW OR NO CLOUDS BELOW 12,000 FEET WITH NO
SIGNIFICANT WEATHER AND/OR OBSTRUCTIONS TO VISIBILITY.

KSZ001>006-013>018-027>032-041>047-012200-
NORTHWEST KANSAS

CITY           SKY/WX    TMP DP  RH WIND       PRES   REMARKS
GOODLAND       MOSUNNY   88  45  22 VRB5      30.16F
HILL CITY      SUNNY     94  47  20 NE14G21   30.09F
$$

KSZ061>065-074>080-084>089-012200-
SOUTHWEST KANSAS

CITY           SKY/WX    TMP DP  RH WIND       PRES   REMARKS
DODGE CITY     SUNNY     88  51  28 NE8G18    30.12F
ELKHART          N/A     86  52  31 MISG        N/A
$$

KSZ066>073-081>083-090>101-012200-
SOUTHEAST KANSAS

CITY           SKY/WX    TMP DP  RH WIND       PRES   REMARKS
CHANUTE        CLOUDY    83  63  50 SE7       30.06F
COFFEYVILLE    PTSUNNY   84  63  49 VRB3      30.05F
HUTCHINSON     SUNNY     91  55  29 N12       30.04F
PARSONS        PTSUNNY   85  63  47 S7        30.07F
WICHITA INTL   MOSUNNY   92  55  28 NW12      30.02F
$$

KSZ007>012-019>026-033>040-048>060-102>105-012200-
NORTHEAST KANSAS

CITY           SKY/WX    TMP DP  RH WIND       PRES   REMARKS
EMPORIA        PTSUNNY   88  60  38 S15       30.02F
LAWRENCE       PTSUNNY   87  59  38 SE9       30.04F
MANHATTAN      MOSUNNY   90  58  33 NE7       30.01F
OLATHE IND     PTSUNNY   84  59  42 SE9       30.06F
OLATHE EXE     PTSUNNY   82  60  47 SE6       30.06S
TOPEKA FORBES  MOSUNNY   86  58  38 S7        30.03F
$$


USA.gov is the U.S. government's official web portal to all federal, state and local government web resources and services.